contact:dominique.lefevre@mio.osupytheas.fr, maurice.libes@osupytheas.fr, didier.mallarino@osupytheas.fr
Project:EMSO http://www.emso-fr.org/EMSO-France
Depth: 2436.0 m
Title:EMSO Ligure Ouest : Data MII capteur AQUADOPP
Date,Latitude,Longitude,X_East,Y_North,Z_Up,Amplitude_X,Amplitude_Y,Amplitude_Z,Batterie,SoundSpeed,Heading,Pitch,Roll,Pressure,TIS,Speed,Direction
, degrees North, degrees East, m.s-1, m.s-1,m.s-1, 1, 1, 1, Volt, m.s-1, degree, degree, degree, dbar, degree_C, m.s-1, degree
2019-11-29T00:04:03,42.805,6.029,0.015,0.018,-0.05,107.0,107.0,101.0,13.3,1505.3,327.3,-0.7,1.8,2470.247,13.31,0.023,39.8
2019-11-29T00:07:03,42.805,6.029,0.02,0.01,-0.048,105.0,108.0,103.0,13.4,1505.3,327.1,-0.8,1.9,2470.254,13.32,0.022,63.4
2019-11-29T00:10:03,42.805,6.029,0.012,0.004,-0.045,105.0,107.0,102.0,13.3,1505.3,328.1,-0.7,1.8,2470.198,13.32,0.012,71.6
2019-11-29T00:13:03,42.805,6.029,0.021,0.007,-0.022,105.0,108.0,102.0,13.4,1505.3,328.7,-0.7,1.8,2470.29,13.33,0.022,71.6
2019-11-29T00:16:03,42.805,6.029,0.013,-0.021,-0.002,104.0,107.0,103.0,13.4,1505.3,325.1,-0.7,1.8,2470.209,13.33,0.024,148.2
2019-11-29T00:19:03,42.805,6.029,0.014,-0.001,-0.036,105.0,108.0,102.0,13.4,1505.3,327.5,-0.7,1.8,2470.176,13.33,0.014,94.1
2019-11-29T00:22:03,42.805,6.029,0.037,0.0,0.01,107.0,107.0,102.0,13.3,1505.3,325.3,-0.7,1.9,2470.232,13.33,0.037,90.0
2019-11-29T00:25:03,42.805,6.029,0.023,-0.01,-0.041,107.0,111.0,103.0,13.3,1505.3,326.3,-0.7,1.8,2470.238,13.33,0.025,113.5
2019-11-29T00:28:03,42.805,6.029,0.028,-0.002,-0.004,106.0,107.0,103.0,13.3,1505.3,326.6,-0.7,1.8,2470.212,13.33,0.028,94.1
2019-11-29T00:31:03,42.805,6.029,0.017,0.013,-0.036,107.0,109.0,102.0,13.3,1505.3,324.8,-0.7,1.9,2470.222,13.33,0.021,52.6
2019-11-29T00:34:03,42.805,6.029,-0.01,0.005,-0.028,106.0,110.0,103.0,13.4,1505.3,323.8,-0.7,1.8,2470.189,13.33,0.011,296.6
2019-11-29T00:37:03,42.805,6.029,0.01,0.0,-0.036,105.0,108.0,103.0,13.4,1505.3,328.4,-0.7,1.8,2470.179,13.33,0.01,90.0
2019-11-29T00:40:03,42.805,6.029,0.034,0.002,-0.008,107.0,110.0,102.0,13.3,1505.3,326.6,-0.7,1.8,2470.221,13.33,0.034,86.6
2019-11-29T00:43:03,42.805,6.029,0.012,-0.001,-0.037,105.0,111.0,103.0,13.4,1505.3,328.2,-0.7,1.8,2470.188,13.33,0.012,94.8
2019-11-29T00:46:03,42.805,6.029,0.055,0.013,0.001,108.0,110.0,103.0,13.4,1505.3,326.6,-0.7,1.8,2470.183,13.33,0.056,76.7
2019-11-29T00:49:03,42.805,6.029,0.003,0.001,-0.038,105.0,108.0,103.0,13.4,1505.3,327.9,-0.7,1.8,2470.201,13.33,0.003,71.6
2019-11-29T00:52:03,42.805,6.029,0.054,0.002,-0.003,105.0,111.0,102.0,13.4,1505.3,325.3,-0.7,1.8,2470.185,13.33,0.054,87.9
2019-11-29T00:55:03,42.805,6.029,0.05,-0.005,-0.033,105.0,109.0,102.0,13.4,1505.3,326.6,-0.7,1.8,2470.208,13.33,0.05,95.7
2019-11-29T00:58:03,42.805,6.029,0.003,0.009,-0.006,107.0,110.0,102.0,13.3,1505.3,324.9,-0.7,1.8,2470.189,13.33,0.009,18.4
2019-11-29T01:04:03,42.805,6.029,0.049,0.025,0.009,105.0,111.0,104.0,13.4,1505.3,322.9,-0.8,1.8,2470.183,13.31,0.055,63.0
2019-11-29T01:07:03,42.805,6.029,0.031,-0.002,-0.001,105.0,110.0,102.0,13.4,1505.3,325.3,-0.7,1.8,2470.208,13.31,0.031,93.7
2019-11-29T01:10:03,42.805,6.029,0.048,0.0,-0.034,106.0,111.0,101.0,13.4,1505.3,326.6,-0.7,1.8,2470.196,13.32,0.048,90.0
2019-11-29T01:13:03,42.805,6.029,0.046,-0.008,0.021,105.0,109.0,104.0,13.4,1505.3,323.6,-0.7,1.8,2470.181,13.32,0.046,99.9
2019-11-29T01:16:03,42.805,6.029,0.014,0.012,-0.006,107.0,109.0,103.0,13.4,1505.3,323.6,-0.7,1.8,2470.181,13.32,0.018,49.4
2019-11-29T01:19:03,42.805,6.029,0.043,0.017,-0.014,106.0,111.0,103.0,13.4,1505.3,326.9,-0.7,1.8,2470.164,13.33,0.046,68.4
2019-11-29T01:22:03,42.805,6.029,0.053,0.005,0.01,106.0,109.0,102.0,13.4,1505.3,326.2,-0.7,1.8,2470.188,13.33,0.053,84.6
2019-11-29T01:25:03,42.805,6.029,0.025,0.014,0.001,105.0,110.0,101.0,13.4,1505.3,323.3,-0.7,1.8,2470.209,13.33,0.028,60.7
2019-11-29T01:28:03,42.805,6.029,0.019,0.011,-0.005,107.0,110.0,102.0,13.4,1505.3,325.8,-0.7,1.8,2470.178,13.33,0.021,59.9
2019-11-29T01:31:03,42.805,6.029,0.002,0.016,-0.012,105.0,109.0,102.0,13.4,1505.3,324.5,-0.7,1.8,2470.165,13.33,0.016,7.1
2019-11-29T01:34:03,42.805,6.029,0.001,0.019,-0.043,107.0,110.0,100.0,13.4,1505.3,327.9,-0.7,1.8,2470.183,13.33,0.019,3.0
2019-11-29T01:37:03,42.805,6.029,0.015,0.01,-0.022,106.0,109.0,103.0,13.4,1505.3,326.2,-0.7,1.8,2470.163,13.33,0.018,56.3
2019-11-29T01:40:03,42.805,6.029,0.016,-0.012,-0.021,107.0,109.0,101.0,13.4,1505.3,325.5,-0.7,1.8,2470.185,13.33,0.02,126.9
2019-11-29T01:43:03,42.805,6.029,0.023,-0.005,-0.006,105.0,109.0,101.0,13.4,1505.3,327.3,-0.7,1.8,2470.19,13.33,0.023,102.3
2019-11-29T01:46:03,42.805,6.029,0.021,0.006,-0.008,105.0,107.0,103.0,13.4,1505.3,323.0,-0.7,1.9,2470.158,13.33,0.021,74.1
2019-11-29T01:49:03,42.805,6.029,0.023,0.002,-0.026,105.0,108.0,102.0,13.4,1505.3,326.6,-0.7,1.8,2470.179,13.33,0.023,85.0
2019-11-29T01:52:03,42.805,6.029,0.018,0.004,0.004,106.0,107.0,102.0,13.4,1505.3,323.4,-0.7,1.8,2470.221,13.33,0.018,77.5
2019-11-29T01:55:03,42.805,6.029,0.022,0.01,-0.03,107.0,107.0,102.0,13.4,1505.3,326.4,-0.7,1.8,2470.192,13.33,0.024,65.6
2019-11-29T01:58:03,42.805,6.029,0.019,0.009,-0.036,107.0,110.0,102.0,13.3,1505.3,326.1,-0.7,1.8,2470.173,13.33,0.021,64.7
2019-11-29T02:04:03,42.805,6.029,0.029,0.0,-0.043,105.0,107.0,101.0,13.4,1505.3,323.9,-0.7,1.8,2470.213,13.31,0.028,90.0
2019-11-29T02:07:03,42.805,6.029,0.02,0.012,0.002,106.0,107.0,102.0,13.4,1505.3,326.6,-0.8,1.8,2470.16,13.32,0.023,59.0
2019-11-29T02:10:03,42.805,6.029,0.0,-0.019,-0.014,106.0,109.0,100.0,13.4,1505.3,324.7,-0.7,1.8,2470.182,13.32,0.019,180.0
2019-11-29T02:13:03,42.805,6.029,0.034,-0.001,-0.015,105.0,108.0,102.0,13.3,1505.3,326.8,-0.7,1.9,2470.164,13.32,0.034,91.7
2019-11-29T02:16:03,42.805,6.029,0.018,-0.015,-0.018,106.0,107.0,101.0,13.4,1505.3,328.4,-0.7,1.8,2470.166,13.33,0.023,129.8
2019-11-29T02:19:03,42.805,6.029,0.04,0.021,0.004,104.0,107.0,102.0,13.4,1505.3,327.2,-0.7,1.8,2470.154,13.33,0.045,62.3
2019-11-29T02:22:03,42.805,6.029,0.008,-0.015,-0.05,104.0,107.0,103.0,13.4,1505.3,327.6,-0.7,1.9,2470.183,13.33,0.017,151.9
2019-11-29T02:25:03,42.805,6.029,0.013,0.013,-0.02,106.0,108.0,102.0,13.3,1505.3,327.5,-0.7,1.8,2470.148,13.33,0.018,45.0
2019-11-29T02:28:03,42.805,6.029,0.029,-0.003,-0.013,105.0,108.0,102.0,13.4,1505.3,325.2,-0.7,1.8,2470.158,13.33,0.029,95.9
2019-11-29T02:31:03,42.805,6.029,0.028,0.011,-0.048,105.0,108.0,103.0,13.4,1505.3,325.0,-0.7,1.8,2470.181,13.33,0.03,68.6
2019-11-29T02:34:03,42.805,6.029,0.022,0.013,-0.009,106.0,106.0,101.0,13.4,1505.3,323.7,-0.7,1.9,2470.137,13.33,0.025,59.4
2019-11-29T02:37:03,42.805,6.029,0.021,-0.03,-0.002,105.0,107.0,101.0,13.4,1505.3,327.5,-0.7,1.8,2470.141,13.33,0.036,145.0
2019-11-29T02:40:03,42.805,6.029,0.016,0.0,-0.033,106.0,107.0,103.0,13.4,1505.3,323.5,-0.7,1.9,2470.143,13.33,0.016,90.0
2019-11-29T02:43:03,42.805,6.029,0.022,0.023,-0.034,105.0,105.0,103.0,13.3,1505.3,323.6,-0.7,1.8,2470.137,13.33,0.031,43.7
2019-11-29T02:46:03,42.805,6.029,0.028,-0.001,-0.01,105.0,108.0,101.0,13.4,1505.3,326.5,-0.7,1.8,2470.132,13.33,0.028,92.0
2019-11-29T02:49:03,42.805,6.029,0.043,0.0,-0.011,105.0,106.0,102.0,13.3,1505.3,323.3,-0.7,1.9,2470.145,13.33,0.043,90.0
2019-11-29T02:52:03,42.805,6.029,0.006,-0.003,-0.036,105.0,107.0,101.0,13.3,1505.3,325.2,-0.7,1.8,2470.167,13.33,0.006,116.6
2019-11-29T02:55:03,42.805,6.029,0.026,0.003,-0.026,106.0,107.0,101.0,13.3,1505.3,328.4,-0.7,1.8,2470.139,13.33,0.026,83.4
2019-11-29T02:58:03,42.805,6.029,0.045,-0.004,-0.011,106.0,107.0,102.0,13.4,1505.3,327.0,-0.8,1.8,2470.105,13.33,0.045,95.1
2019-11-29T03:04:03,42.805,6.029,0.041,0.008,0.004,105.0,107.0,101.0,13.4,1505.3,326.7,-0.7,1.9,2470.162,13.31,0.041,79.0
2019-11-29T03:07:03,42.805,6.029,0.04,0.004,-0.015,105.0,108.0,102.0,13.4,1505.3,326.3,-0.8,1.8,2470.176,13.32,0.04,84.3
2019-11-29T03:10:03,42.805,6.029,0.019,0.007,-0.034,107.0,105.0,101.0,13.4,1505.3,325.0,-0.7,1.8,2470.15,13.32,0.02,69.8
2019-11-29T03:13:03,42.805,6.029,0.01,0.002,-0.014,105.0,106.0,102.0,13.4,1505.3,324.7,-0.7,1.8,2470.139,13.33,0.01,78.7
2019-11-29T03:16:03,42.805,6.029,0.009,0.002,-0.008,105.0,108.0,101.0,13.4,1505.3,325.3,-0.7,1.9,2470.133,13.33,0.009,77.5
2019-11-29T03:19:03,42.805,6.029,0.035,-0.001,-0.03,104.0,107.0,103.0,13.4,1505.3,324.2,-0.7,1.8,2470.132,13.33,0.035,91.6
2019-11-29T03:22:03,42.805,6.029,0.02,0.021,-0.042,106.0,108.0,102.0,13.4,1505.3,324.5,-0.7,1.9,2470.14,13.33,0.028,43.6
2019-11-29T03:28:03,42.805,6.029,0.018,0.007,-0.055,105.0,107.0,102.0,13.4,1505.3,324.3,-0.7,1.9,2470.209,13.31,0.019,68.8
2019-11-29T03:31:03,42.805,6.029,0.023,-0.009,-0.024,106.0,105.0,104.0,13.3,1505.3,322.7,-0.7,1.8,2470.119,13.32,0.024,111.4
2019-11-29T03:34:03,42.805,6.029,0.015,-0.005,-0.022,105.0,107.0,102.0,13.4,1505.3,326.6,-0.7,1.8,2470.164,13.32,0.015,108.4
2019-11-29T03:37:03,42.805,6.029,0.009,-0.016,-0.025,107.0,108.0,102.0,13.3,1505.3,326.6,-0.7,1.8,2470.18,13.32,0.018,150.6
2019-11-29T03:40:03,42.805,6.029,-0.006,-0.002,-0.057,105.0,109.0,101.0,13.3,1505.3,324.5,-0.7,1.9,2470.154,13.33,0.006,251.6
2019-11-29T03:43:03,42.805,6.029,0.032,-0.009,-0.027,107.0,107.0,102.0,13.4,1505.3,325.8,-0.7,1.9,2470.162,13.33,0.033,105.7
2019-11-29T03:46:03,42.805,6.029,0.024,-0.003,-0.038,105.0,108.0,102.0,13.4,1505.3,327.8,-0.7,1.8,2470.18,13.33,0.024,97.1
2019-11-29T03:49:03,42.805,6.029,-0.003,-0.014,-0.053,107.0,108.0,102.0,13.4,1505.3,324.9,-0.7,1.8,2470.193,13.33,0.014,192.1
2019-11-29T03:52:03,42.805,6.029,0.004,-0.005,-0.037,105.0,107.0,101.0,13.4,1505.3,324.9,-0.8,1.8,2470.163,13.33,0.006,141.3
2019-11-29T03:55:03,42.805,6.029,0.028,-0.025,-0.028,108.0,107.0,102.0,13.3,1505.3,324.8,-0.7,1.8,2470.125,13.33,0.037,131.8
2019-11-29T03:58:03,42.805,6.029,0.019,0.005,-0.048,106.0,108.0,102.0,13.4,1505.3,328.2,-0.7,1.8,2470.146,13.33,0.019,75.3
2019-11-29T04:04:03,42.805,6.029,0.031,0.028,-0.032,106.0,107.0,101.0,13.4,1505.3,326.1,-0.7,1.8,2470.183,13.31,0.041,47.9
2019-11-29T04:07:03,42.805,6.029,0.024,0.002,-0.03,107.0,107.0,102.0,13.3,1505.3,324.9,-0.7,1.8,2470.2,13.32,0.024,85.2
2019-11-29T04:10:03,42.805,6.029,0.02,-0.006,0.008,105.0,107.0,103.0,13.3,1505.3,323.2,-0.7,1.8,2470.202,13.32,0.02,106.7
2019-11-29T04:13:03,42.805,6.029,0.022,0.005,0.016,106.0,108.0,102.0,13.4,1505.3,325.2,-0.7,1.8,2470.216,13.32,0.022,77.2
2019-11-29T04:16:03,42.805,6.029,0.025,-0.004,0.011,106.0,107.0,101.0,13.4,1505.3,327.0,-0.7,1.8,2470.19,13.33,0.025,99.1
2019-11-29T04:19:03,42.805,6.029,0.032,0.006,-0.011,106.0,107.0,102.0,13.3,1505.3,323.5,-0.7,1.8,2470.185,13.33,0.032,79.4
2019-11-29T04:22:03,42.805,6.029,0.016,-0.001,-0.001,107.0,106.0,102.0,13.4,1505.3,327.0,-0.7,1.8,2470.216,13.33,0.016,93.6
2019-11-29T04:25:03,42.805,6.029,0.04,0.018,-0.005,105.0,107.0,103.0,13.3,1505.3,326.9,-0.7,1.8,2470.209,13.33,0.043,65.8
2019-11-29T04:28:03,42.805,6.029,0.012,-0.021,-0.063,106.0,108.0,101.0,13.4,1505.3,326.1,-0.7,1.8,2470.214,13.33,0.024,150.3
2019-11-29T04:31:03,42.805,6.029,0.007,0.003,-0.026,106.0,108.0,101.0,13.3,1505.3,324.8,-0.7,1.8,2470.224,13.33,0.007,66.8
2019-11-29T04:34:03,42.805,6.029,0.005,0.0,-0.035,106.0,108.0,101.0,13.4,1505.3,322.8,-0.7,1.8,2470.23,13.33,0.005,90.0
2019-11-29T04:40:03,42.805,6.029,0.014,0.01,-0.031,106.0,108.0,102.0,13.4,1505.3,326.7,-0.8,1.8,2470.245,13.31,0.017,54.5
2019-11-29T04:43:03,42.805,6.029,0.018,-0.009,-0.017,105.0,107.0,103.0,13.3,1505.3,325.2,-0.7,1.8,2470.203,13.32,0.02,116.6
2019-11-29T04:46:03,42.805,6.029,0.042,-0.003,0.021,104.0,108.0,103.0,13.4,1505.3,325.3,-0.7,1.9,2470.212,13.32,0.042,94.1
2019-11-29T04:49:03,42.805,6.029,0.008,-0.011,-0.034,107.0,109.0,102.0,13.4,1505.3,326.8,-0.7,1.8,2470.247,13.32,0.013,144.0
2019-11-29T04:52:03,42.805,6.029,0.03,-0.005,0.0,106.0,107.0,102.0,13.4,1505.3,322.9,-0.7,1.8,2470.224,13.33,0.03,99.5
2019-11-29T04:55:03,42.805,6.029,0.009,-0.008,-0.042,105.0,107.0,103.0,13.4,1505.3,324.1,-0.7,1.8,2470.213,13.33,0.012,131.6
2019-11-29T04:58:03,42.805,6.029,0.039,-0.016,-0.026,104.0,107.0,102.0,13.4,1505.3,324.6,-0.7,1.8,2470.219,13.33,0.042,112.3
2019-11-29T05:04:03,42.805,6.029,0.042,0.0,-0.004,105.0,107.0,102.0,13.3,1505.3,327.6,-0.7,1.8,2470.288,13.31,0.042,90.0
2019-11-29T05:07:03,42.805,6.029,0.015,-0.012,0.0,104.0,107.0,102.0,13.3,1505.3,328.0,-0.7,1.8,2470.254,13.31,0.019,128.7
2019-11-29T05:10:03,42.805,6.029,0.019,-0.004,-0.037,105.0,108.0,103.0,13.3,1505.3,325.4,-0.7,1.8,2470.204,13.32,0.019,101.9
2019-11-29T05:13:03,42.805,6.029,0.033,-0.019,-0.029,105.0,109.0,102.0,13.4,1505.3,326.3,-0.7,1.9,2470.258,13.32,0.038,119.9
2019-11-29T05:16:03,42.805,6.029,-0.038,0.001,-0.046,105.0,109.0,102.0,13.4,1505.3,324.4,-0.7,1.8,2470.23,13.33,0.038,271.5
2019-11-29T05:19:03,42.805,6.029,-0.005,-0.002,-0.066,105.0,109.0,103.0,13.3,1505.3,323.8,-0.7,1.8,2470.241,13.33,0.005,248.2
2019-11-29T05:22:03,42.805,6.029,-0.002,-0.005,-0.056,105.0,109.0,102.0,13.4,1505.3,328.3,-0.7,1.8,2470.234,13.33,0.005,201.8
2019-11-29T05:25:03,42.805,6.029,-0.047,-0.005,-0.038,106.0,110.0,102.0,13.4,1505.3,328.2,-0.7,1.9,2470.273,13.33,0.047,263.9
2019-11-29T05:28:03,42.805,6.029,-0.005,-0.016,-0.035,103.0,108.0,101.0,13.3,1505.3,324.9,-0.7,1.8,2470.247,13.33,0.016,197.4
2019-11-29T05:31:03,42.805,6.029,0.011,-0.016,-0.052,105.0,108.0,102.0,13.4,1505.3,326.3,-0.7,1.8,2470.314,13.33,0.019,145.5
2019-11-29T05:34:03,42.805,6.029,0.01,-0.016,-0.034,104.0,108.0,101.0,13.4,1505.3,323.6,-0.7,1.8,2470.302,13.33,0.018,148.0
2019-11-29T05:37:03,42.805,6.029,0.044,-0.002,0.002,105.0,107.0,101.0,13.4,1505.3,325.4,-0.7,1.8,2470.276,13.33,0.044,92.6
2019-11-29T05:40:03,42.805,6.029,0.039,-0.013,-0.024,106.0,107.0,102.0,13.4,1505.3,324.4,-0.7,1.8,2470.26,13.33,0.041,108.4
2019-11-29T05:43:03,42.805,6.029,-0.008,-0.017,-0.031,106.0,109.0,103.0,13.4,1505.3,326.3,-0.7,1.8,2470.285,13.33,0.018,205.2
2019-11-29T05:46:03,42.805,6.029,0.03,-0.015,-0.046,106.0,109.0,102.0,13.4,1505.3,323.5,-0.7,1.8,2470.278,13.33,0.033,116.6
2019-11-29T05:49:03,42.805,6.029,-0.015,-0.012,-0.051,105.0,108.0,102.0,13.4,1505.3,327.0,-0.7,1.9,2470.308,13.33,0.019,231.3
2019-11-29T05:52:03,42.805,6.029,0.012,-0.013,-0.041,105.0,109.0,102.0,13.4,1505.3,328.5,-0.7,1.8,2470.293,13.33,0.017,137.3
2019-11-29T05:55:03,42.805,6.029,-0.025,-0.003,-0.041,104.0,109.0,102.0,13.4,1505.3,323.7,-0.7,1.8,2470.278,13.33,0.025,263.2
2019-11-29T05:58:03,42.805,6.029,-0.004,0.01,-0.036,105.0,108.0,102.0,13.4,1505.3,322.7,-0.7,1.8,2470.282,13.33,0.01,338.2
2019-11-29T06:04:03,42.805,6.029,-0.031,-0.011,-0.067,107.0,108.0,101.0,13.4,1505.3,325.0,-0.7,1.8,2470.324,13.31,0.032,250.5
2019-11-29T06:07:03,42.805,6.029,-0.022,0.009,-0.047,106.0,108.0,101.0,13.3,1505.3,327.1,-0.7,1.8,2470.341,13.32,0.023,292.2
2019-11-29T06:10:03,42.805,6.029,0.007,0.004,-0.069,105.0,109.0,103.0,13.3,1505.3,323.1,-0.7,1.8,2470.329,13.32,0.008,60.3
2019-11-29T06:13:03,42.805,6.029,-0.019,0.009,-0.044,105.0,109.0,102.0,13.3,1505.3,327.3,-0.7,1.8,2470.344,13.33,0.021,295.3
2019-11-29T06:16:03,42.805,6.029,-0.002,-0.006,-0.048,105.0,108.0,102.0,13.4,1505.3,328.1,-0.7,1.8,2470.329,13.33,0.006,198.4
2019-11-29T06:19:03,42.805,6.029,0.01,-0.003,-0.059,105.0,109.0,102.0,13.3,1505.3,324.5,-0.7,1.8,2470.316,13.33,0.01,106.7
2019-11-29T06:22:03,42.805,6.029,0.004,-0.005,-0.06,104.0,109.0,102.0,13.3,1505.3,326.9,-0.7,1.8,2470.355,13.33,0.006,141.3
2019-11-29T06:25:03,42.805,6.029,0.005,0.0,-0.011,103.0,110.0,102.0,13.4,1505.3,323.7,-0.7,1.8,2470.343,13.33,0.005,90.0
2019-11-29T06:28:03,42.805,6.029,-0.011,-0.011,-0.071,104.0,109.0,101.0,13.3,1505.3,326.0,-0.7,1.8,2470.355,13.33,0.015,225.0
2019-11-29T06:31:03,42.805,6.029,-0.007,-0.008,-0.059,104.0,111.0,101.0,13.4,1505.3,325.2,-0.7,1.8,2470.323,13.33,0.01,221.2
2019-11-29T06:34:03,42.805,6.029,0.013,-0.018,-0.032,105.0,109.0,102.0,13.4,1505.3,325.1,-0.7,1.8,2470.269,13.33,0.022,144.2
2019-11-29T06:37:03,42.805,6.029,0.0,0.001,-0.05,105.0,109.0,101.0,13.4,1505.3,325.7,-0.7,1.9,2470.358,13.33,0.001,0.0
2019-11-29T06:40:03,42.805,6.029,-0.002,-0.016,-0.059,104.0,110.0,102.0,13.4,1505.3,324.0,-0.7,1.8,2470.351,13.33,0.016,187.1
2019-11-29T06:43:03,42.805,6.029,-0.026,-0.011,-0.05,105.0,109.0,101.0,13.4,1505.3,327.9,-0.7,1.8,2470.353,13.33,0.028,247.1
2019-11-29T06:46:03,42.805,6.029,-0.019,-0.02,-0.058,105.0,108.0,101.0,13.3,1505.3,324.9,-0.7,1.8,2470.374,13.33,0.027,223.5
2019-11-29T06:49:03,42.805,6.029,-0.008,-0.028,-0.066,102.0,109.0,102.0,13.3,1505.3,323.8,-0.7,1.9,2470.367,13.33,0.029,195.9
2019-11-29T06:52:03,42.805,6.029,-0.02,0.001,-0.057,104.0,109.0,100.0,13.3,1505.3,327.9,-0.7,1.9,2470.375,13.33,0.02,272.9
2019-11-29T06:55:03,42.805,6.029,-0.01,-0.027,-0.079,103.0,109.0,102.0,13.3,1505.3,325.4,-0.7,1.8,2470.325,13.33,0.028,200.3
2019-11-29T07:04:03,42.805,6.029,-0.029,0.006,-0.043,104.0,108.0,101.0,13.3,1505.2,325.9,-0.8,1.8,2470.456,13.3,0.029,281.7
2019-11-29T07:07:03,42.805,6.029,-0.004,-0.016,-0.045,103.0,108.0,103.0,13.3,1505.3,326.9,-0.7,1.8,2470.469,13.31,0.016,194.0
2019-11-29T07:10:03,42.805,6.029,-0.033,-0.01,-0.055,105.0,108.0,102.0,13.4,1505.3,325.7,-0.8,1.8,2470.43,13.32,0.034,253.1
2019-11-29T07:13:03,42.805,6.029,-0.012,-0.018,-0.064,106.0,108.0,101.0,13.3,1505.3,322.9,-0.7,1.8,2470.442,13.32,0.021,213.7
2019-11-29T07:16:03,42.805,6.029,-0.007,0.013,-0.069,103.0,108.0,101.0,13.3,1505.3,325.0,-0.7,1.8,2470.399,13.33,0.014,331.7
2019-11-29T07:19:03,42.805,6.029,0.002,0.0,-0.059,106.0,106.0,100.0,13.3,1505.3,327.7,-0.7,1.9,2470.44,13.33,0.002,90.0
2019-11-29T07:22:03,42.805,6.029,-0.041,-0.008,-0.052,103.0,106.0,102.0,13.4,1505.3,323.7,-0.7,1.8,2470.407,13.33,0.041,259.0
2019-11-29T07:25:03,42.805,6.029,-0.024,-0.008,-0.06,105.0,107.0,100.0,13.4,1505.3,324.9,-0.7,1.8,2470.402,13.33,0.025,251.6
2019-11-29T07:28:03,42.805,6.029,-0.005,0.005,-0.05,105.0,109.0,102.0,13.4,1505.3,325.3,-0.7,1.8,2470.413,13.33,0.007,315.0
2019-11-29T07:34:03,42.805,6.029,-0.006,-0.025,-0.089,104.0,107.0,101.0,13.4,1505.3,323.3,-0.7,1.8,2470.491,13.31,0.025,193.5
2019-11-29T07:37:03,42.805,6.029,-0.008,-0.004,-0.046,106.0,106.0,101.0,13.4,1505.3,323.2,-0.8,1.8,2470.409,13.32,0.008,243.4
2019-11-29T07:40:03,42.805,6.029,0.002,0.005,-0.031,104.0,108.0,101.0,13.3,1505.3,324.6,-0.7,1.8,2470.447,13.32,0.005,21.8
2019-11-29T07:43:03,42.805,6.029,-0.019,0.002,-0.09,105.0,106.0,101.0,13.4,1505.3,327.7,-0.7,1.8,2470.407,13.33,0.019,276.0
2019-11-29T07:46:03,42.805,6.029,-0.019,0.001,-0.046,105.0,107.0,101.0,13.3,1505.3,325.7,-0.7,1.8,2470.433,13.33,0.019,273.0
2019-11-29T07:49:03,42.805,6.029,-0.025,-0.014,-0.069,105.0,108.0,101.0,13.4,1505.3,326.9,-0.7,1.8,2470.416,13.33,0.028,240.7
2019-11-29T07:52:03,42.805,6.029,-0.009,-0.01,-0.054,106.0,107.0,102.0,13.4,1505.3,323.9,-0.7,1.9,2470.44,13.33,0.013,222.0
2019-11-29T07:55:03,42.805,6.029,-0.029,0.012,-0.043,104.0,107.0,101.0,13.4,1505.3,328.3,-0.7,1.8,2470.454,13.33,0.031,292.5
2019-11-29T07:58:03,42.805,6.029,0.002,-0.002,-0.041,104.0,106.0,101.0,13.4,1505.3,324.2,-0.7,1.8,2470.439,13.33,0.002,135.0
2019-11-29T08:04:03,42.805,6.029,0.005,-0.009,-0.018,104.0,109.0,103.0,13.3,1505.3,323.2,-0.7,1.8,2470.451,13.31,0.01,150.9
2019-11-29T08:07:03,42.805,6.029,0.003,0.0,-0.045,104.0,108.0,101.0,13.4,1505.3,325.5,-0.8,1.9,2470.475,13.32,0.003,90.0
2019-11-29T08:10:03,42.805,6.029,0.005,-0.01,-0.051,105.0,108.0,101.0,13.4,1505.3,327.8,-0.8,1.9,2470.428,13.32,0.011,153.4
2019-11-29T08:16:03,42.805,6.029,0.032,0.01,-0.012,105.0,108.0,102.0,13.4,1505.3,326.1,-0.8,1.8,2470.487,13.31,0.033,72.6
2019-11-29T08:19:03,42.805,6.029,0.022,0.0,-0.025,105.0,108.0,101.0,13.4,1505.3,325.6,-0.8,1.9,2470.481,13.32,0.022,90.0
2019-11-29T08:22:03,42.805,6.029,0.03,0.001,-0.009,105.0,107.0,104.0,13.4,1505.3,324.3,-0.7,1.8,2470.436,13.32,0.03,88.1
2019-11-29T08:25:03,42.805,6.029,0.027,-0.013,-0.005,106.0,107.0,101.0,13.4,1505.3,326.2,-0.7,1.8,2470.482,13.33,0.029,115.7
2019-11-29T08:28:03,42.805,6.029,0.023,0.007,-0.019,103.0,106.0,102.0,13.4,1505.3,328.1,-0.7,1.9,2470.432,13.33,0.024,73.1
2019-11-29T08:31:03,42.805,6.029,0.03,-0.006,-0.003,106.0,107.0,102.0,13.4,1505.3,326.7,-0.7,1.8,2470.445,13.33,0.03,101.3
2019-11-29T08:34:03,42.805,6.029,0.018,0.019,-0.015,105.0,106.0,101.0,13.4,1505.3,327.0,-0.7,1.8,2470.455,13.33,0.026,43.5
2019-11-29T08:37:03,42.805,6.029,0.02,0.0,-0.044,103.0,107.0,100.0,13.4,1505.3,325.9,-0.6,1.8,2470.444,13.33,0.02,90.0
2019-11-29T08:40:03,42.805,6.029,0.047,-0.006,0.0,105.0,107.0,102.0,13.3,1505.3,325.6,-0.7,1.8,2470.456,13.33,0.047,97.3
2019-11-29T08:43:03,42.805,6.029,0.006,0.013,-0.035,104.0,107.0,101.0,13.3,1505.3,323.9,-0.7,1.8,2470.451,13.33,0.014,24.8
2019-11-29T08:46:03,42.805,6.029,-0.015,-0.012,-0.019,103.0,108.0,101.0,13.3,1505.3,326.7,-0.7,1.9,2470.419,13.33,0.019,231.3
2019-11-29T08:49:03,42.805,6.029,0.024,0.004,0.019,106.0,107.0,103.0,13.3,1505.3,325.6,-0.7,1.8,2470.46,13.33,0.024,80.5
2019-11-29T08:52:03,42.805,6.029,0.002,-0.007,-0.07,106.0,107.0,101.0,13.4,1505.3,327.7,-0.7,1.9,2470.45,13.33,0.007,164.1
2019-11-29T08:55:03,42.805,6.029,-0.016,0.0,-0.062,103.0,107.0,102.0,13.3,1505.3,325.6,-0.7,1.8,2470.423,13.33,0.016,270.0
2019-11-29T08:58:03,42.805,6.029,0.019,0.01,-0.041,108.0,107.0,102.0,13.4,1505.3,327.0,-0.7,1.8,2470.445,13.33,0.021,62.2
2019-11-29T09:04:03,42.805,6.029,0.011,0.002,-0.033,104.0,106.0,101.0,13.4,1505.3,327.9,-0.7,1.8,2470.516,13.31,0.011,79.7
2019-11-29T09:07:03,42.805,6.029,0.006,-0.003,-0.036,104.0,107.0,103.0,13.3,1505.3,324.9,-0.7,1.8,2470.481,13.32,0.006,116.6
2019-11-29T09:10:03,42.805,6.029,0.011,-0.001,-0.026,105.0,107.0,102.0,13.4,1505.3,327.2,-0.7,1.9,2470.509,13.32,0.011,95.2
2019-11-29T09:13:03,42.805,6.029,0.028,-0.002,-0.009,103.0,107.0,101.0,13.4,1505.3,323.2,-0.7,1.8,2470.444,13.33,0.028,94.1
2019-11-29T09:16:03,42.805,6.029,0.019,0.001,-0.014,107.0,107.0,101.0,13.4,1505.3,324.8,-0.7,1.8,2470.436,13.33,0.019,87.0
2019-11-29T09:19:03,42.805,6.029,0.01,0.0,-0.035,106.0,107.0,102.0,13.3,1505.3,326.7,-0.7,1.8,2470.462,13.33,0.01,90.0
2019-11-29T09:22:03,42.805,6.029,0.013,-0.014,-0.012,108.0,107.0,102.0,13.3,1505.3,324.6,-0.7,1.8,2470.43,13.33,0.019,137.1
2019-11-29T09:25:03,42.805,6.029,0.043,0.012,-0.034,106.0,107.0,101.0,13.4,1505.3,325.4,-0.7,1.8,2470.456,13.33,0.044,74.4
2019-11-29T09:28:03,42.805,6.029,0.02,0.009,0.0,103.0,108.0,102.0,13.4,1505.3,328.4,-0.7,1.8,2470.453,13.33,0.021,65.8
2019-11-29T09:31:03,42.805,6.029,0.014,-0.005,-0.01,105.0,107.0,102.0,13.3,1505.3,328.0,-0.8,1.9,2470.465,13.33,0.014,109.6
2019-11-29T09:34:03,42.805,6.029,0.029,-0.002,-0.016,109.0,108.0,101.0,13.4,1505.3,326.6,-0.7,1.8,2470.464,13.33,0.029,93.9
2019-11-29T09:37:03,42.805,6.029,0.027,-0.011,-0.009,104.0,108.0,100.0,13.3,1505.3,327.6,-0.7,1.8,2470.466,13.33,0.029,112.2
2019-11-29T09:40:03,42.805,6.029,0.019,0.0,0.02,105.0,109.0,102.0,13.4,1505.3,324.2,-0.7,1.8,2470.484,13.33,0.019,90.0
2019-11-29T09:43:03,42.805,6.029,0.004,0.008,0.0,105.0,107.0,101.0,13.4,1505.3,326.6,-0.7,1.8,2470.432,13.33,0.008,26.6
2019-11-29T09:46:03,42.805,6.029,0.015,0.0,-0.036,108.0,107.0,101.0,13.3,1505.3,323.8,-0.7,1.8,2470.424,13.33,0.015,90.0
2019-11-29T09:49:03,42.805,6.029,0.018,0.022,-0.02,103.0,108.0,101.0,13.3,1505.4,325.2,-0.7,1.8,2470.462,13.34,0.028,39.3
2019-11-29T09:52:03,42.805,6.029,0.033,-0.005,-0.053,104.0,109.0,101.0,13.4,1505.4,326.8,-0.7,1.8,2470.49,13.34,0.033,98.6
2019-11-29T09:55:03,42.805,6.029,0.019,0.013,-0.005,105.0,108.0,101.0,13.4,1505.4,324.5,-0.7,1.8,2470.432,13.34,0.023,55.6
2019-11-29T09:58:03,42.805,6.029,0.045,0.011,-0.003,103.0,109.0,102.0,13.4,1505.4,328.4,-0.7,1.8,2470.439,13.34,0.046,76.3
2019-11-29T10:04:03,42.805,6.029,0.017,-0.002,0.01,106.0,107.0,101.0,13.4,1505.3,325.9,-0.8,1.8,2470.525,13.32,0.017,96.7
2019-11-29T10:07:03,42.805,6.029,0.0,0.009,-0.016,105.0,109.0,100.0,13.3,1505.3,324.3,-0.8,1.8,2470.456,13.32,0.009,0.0
2019-11-29T10:10:03,42.805,6.029,0.018,0.025,-0.025,104.0,109.0,101.0,13.4,1505.3,327.8,-0.7,1.8,2470.415,13.33,0.03,35.8
2019-11-29T10:13:03,42.805,6.029,0.022,0.002,-0.011,105.0,108.0,102.0,13.4,1505.3,326.5,-0.7,1.9,2470.457,13.33,0.022,84.8
2019-11-29T10:16:03,42.805,6.029,0.02,-0.001,0.014,103.0,107.0,101.0,13.4,1505.3,326.7,-0.7,1.8,2470.432,13.33,0.02,92.9